Regional Weather Roundup
Issued by NWS

Home | Current Version | Previous Version | Text Only | Print | Product List | Glossary On
Versions: 1 2 3 4 5 6 7 8 9 10 11 12 13 14 15 16 17 18 19 20 21 22 23 24 25 26 27 28 29 30 31 32 33 34 35 36 37 38 39 40 41 42 43 44
000
ASUS45 KPSR 050110
RWRAZ

ARIZONA REGIONAL HOURLY WEATHER ROUNDUP
NATIONAL WEATHER SERVICE PHOENIX AZ
600 PM MST WED MAR 04 2015

NOTE: FAIR INDICATES FEW OR NO CLOUDS BELOW 12,000 FEET WITH NO
SIGNIFICANT WEATHER AND/OR OBSTRUCTIONS TO VISIBILITY.

AZZ001>003-036-050200-
NORTHWEST ARIZONA

CITY           SKY/WX    TMP DP  RH WIND       PRES   REMARKS
BULLHEAD CITY  CLEAR     63  25  23 N24G30    30.11R
KINGMAN        CLEAR     51  26  37 N16       30.13R
$$

AZZ004>008-015-016-018-050200-
NORTH CENTRAL ARIZONA

CITY           SKY/WX    TMP DP  RH WIND       PRES   REMARKS
GRAND CANYON   CLEAR     36  13  38 SE3       30.16R
PRESCOTT       FAIR      50  19  29 N8        30.10R
FLAGSTAFF      PTCLDY    34  14  43 E5        30.14R WCI  30
PAYSON         CLEAR     48  21  34 NE8G15    30.11R
PAGE           CLEAR     46  14  27 SE5       30.16R
$$

AZZ009>014-017-050200-
NORTHEAST ARIZONA

CITY           SKY/WX    TMP DP  RH WIND       PRES   REMARKS
WINSLOW        CLEAR     46  19  34 NW9       30.13R
SAINT JOHNS    CLEAR     45  16  31 NW10      30.09R
WINDOW ROCK    PTCLDY    37  11  34 N8        30.10R WCI  31
SHOW LOW       CLEAR     37  18  44 N12       30.13R WCI  30
$$

AZZ023-050200-
GREATER PHOENIX AREA

CITY           SKY/WX    TMP DP  RH WIND       PRES   REMARKS
PHOENIX        PTCLDY    67  33  28 W9        30.02R
BUCKEYE        CLEAR     64  36  34 SW6       30.05R
GLENDALE       PTCLDY    68  34  28 S7        30.04R
LUKE AFB       CLEAR     67  33  29 SW7       30.02R
DEER VALLEY    CLEAR     65  30  27 W9        30.02R
SCOTTSDALE     CLEAR     67  27  22 NW7       30.04R
MESA-FALCON    PTCLDY    66  28  24 W9        30.02R
MESA-GATEWAY   PTCLDY    64  30  27 NW6       30.04
CHANDLER       PTCLDY    66  30  26 W12       30.03R
$$

AZZ027-028-050200-
SOUTHWEST MARICOPA COUNTY AND PINAL COUNTY

CITY           SKY/WX    TMP DP  RH WIND       PRES   REMARKS
CASA GRANDE    CLEAR     64  27  24 NW6       30.05R
GILA BEND      CLEAR     66  30  26 NW8       30.05R
$$

AZZ503-504-507>509-050200-
SOUTHEAST ARIZONA

CITY           SKY/WX    TMP DP  RH WIND       PRES   REMARKS
TUCSON         CLEAR     60  32  34 NW8       30.06R
DAVIS-MONTHAN  CLEAR     58  33  37 NW14      30.04R
RYAN FIELD       N/A     61  34  36 NW12      30.07R
NOGALES        MOCLDY    56  28  34 NW12      30.04R
SIERRA VISTA   PTCLDY    52  27  37 NW12      30.06R
DOUGLAS        CLOUDY    52  35  52 E8        30.05R
SAFFORD        CLEAR     60  25  26 W20       29.98R
$$

AZZ020-021-025-026-031-050200-
SOUTHWEST ARIZONA

CITY           SKY/WX    TMP DP  RH WIND       PRES   REMARKS
YUMA           CLEAR     67  25  20 N12       30.08R
$$

CAZ031-033-041-043-047-048-061-050200-
SOUTHERN CALIFORNIA

CITY           SKY/WX    TMP DP  RH WIND       PRES   REMARKS
DOWNTOWN L.A.  CLEAR     66  39  37 VRB5      30.07R
L.A. AIRPORT   PTCLDY    62  45  53 W12       30.08S
SAN DIEGO      PTCLDY    65  48  54 W9        30.09R
BURBANK        CLEAR     66  31  27 S6        30.07R
ONTARIO        PTCLDY    68  28  22 SW9       30.06S
RIVERSIDE      CLEAR     70  10  10 N8        30.06S
PALM SPRINGS   CLEAR     71   9   9 CALM      30.09R
EL CENTRO NAS  PTCLDY    70  23  17 NE3       30.08R
IMPERIAL       CLEAR     69  25  19 N6        30.07R
BLYTHE         CLEAR     67  21  17 N15       30.08R
$$

NVZ020-UTZ003-050200-
SOUTHERN NEVADA-UTAH

CITY           SKY/WX    TMP DP  RH WIND       PRES   REMARKS
LAS VEGAS      CLEAR     59  13  16 E7        30.13R
SALT LAKE CITY PTCLDY    37  18  46 NW7       30.26R WCI  32
$$

NMZ009-TXZ055-050200-
NEW MEXICO-WEST TEXAS

CITY           SKY/WX    TMP DP  RH WIND       PRES   REMARKS
ALBUQUERQUE    PTCLDY    47  13  25 NW15      30.01R
EL PASO        MOCLDY    57  29  34 NW6       29.98R
$$


........................KEY........................
SKY/WX - SKY CONDITION/WEATHER
TMP    - TEMPERATURE IN FAHRENHEIT
DP     - DEW POINT IN FAHRENHEIT
RH     - RELATIVE HUMIDITY IN PERCENT
WIND   - DIRECTION AND SPEED IN MILES PER HOUR (MPH)
VRB    - VARIABLE WIND DIRECTION
PRES   - MEAN SEA LEVEL PRESSURE IN INCHES OF MERCURY
         F - FALLING PRESSURE   R - RISING PRESSURE
         S - STEADY PRESSURE
VSB    - VISIBILITY IN MILES
HX     - HEAT INDEX IN FAHRENHEIT
WCI    - WIND CHILL INDEX IN FAHRENHEIT
TC     - TEMPERATURE IN CELSIUS WHICH IS ALSO KNOWN AS
         TEMPERATURE IN CENTIGRADE
AFB    - AIR FORCE BASE
         LUKE AFB IS LUKE AIR FORCE BASE
         DAVIS-MONTHAN IS DAVIS-MONTHAN AIR FORCE BASE
NAS    - NAVAL AIR STATION
         EL CENTRO NAS IS EL CENTRO NAVAL AIR STATION
N/A    - NOT AVAILABLE




USA.gov is the U.S. government's official web portal to all federal, state and local government web resources and services.